Showing default

COSMOS 1803, 17177

Orbit data source: Space-Track

COSMOS 1803, 17177 is a payload satellite owned by VTS SA (CIS) in LEO that was launched on Tue, 02 Dec 1986 UTC via a TSIKLON-3 launch vehicle from the Plesetsk Missile And Space Complex (PKMTR). Payload-class satellites include a variety of spacecraft equipped with specific instruments for various scientific and technological missions. These include communications satellites like Starlink; space stations such as the ISS; scientific satellites like the Hubble; Earth observation satellites from companies like Planet Labs, Umbra, and HawkEye 360; GPS; miniature CubeSats for education and research; and military/defense satellites.

Loading next visibility...
Identifier
17177, 1986-094A
Orbit
LEO
Last TLE update
15 hours ago
Origin
Manufacturer
NPO PM
Mission
Defense Geodetic
Bus & Motor
KAUR-1 11F666, Unknown motor
Mass
1,552 kg wet, 1,552 kg dry
Launch date (UTC)
1986-12-02 (39 years ago)
Launch vehicle
TSIKLON-3
Launch site
Plesetsk Missile And Space Complex (PKMTR)
Object type
Payload
Rocket body
Debris
Shape & HBR
Cyl, 5.8 m
Radar Cross Section
13.195 m², Large (>1 m²)

Expand to show TLE details & history

TLE from 15 hours ago
0 COSMOS 1803
1 17177U 86094A   25183.87369767  .00000011  00000-0  84694-5 0  9990
2 17177  82.6041 224.2588 0004619 117.9455  55.0366 12.41550704748608
Epoch: 2025-07-02T20:58Z
TLE epoch observation values (Epoch: 2025-07-02T20:58:07.478Z)
Latitude
6.84788°
Longitude
167.69028°
Altitude
1,500.028 km
Speed
7.116 km/s
True Right ascension
02h 53m 28s
True Declination
6° 48' 40"
Sunlit
Object was in daylight at epoch
Visualization orbit readout
Latitude
36.81277°
Longitude
-6.24878°
Altitude
1,504.254 km
Speed
7.116 km/s
Apparent Right ascension
13h 39m 13s
Apparent Declination
3° 39' 30"
Sunlit
Object is in daylight
Visualization observer readout
Local Sidereal Time
23:29:12
Azimuth
317.685° NNW
Elevation
-37.2°
Doppler factor
1
Orbital elements
Apogee altitude
1,501.023 km
Perigee altitude
1,493.748 km
Semi-major axis
7,875.523 km
Eccentricity
0.00046
Inclination
82.6041°
RAAN
224.2588°
Arg. of periapsis
117.9455°
True anomaly
Unknown
Mean anomaly
55.0366°
Eccentric anomaly
Unknown
Mean motion
3.10545 °/min
Orbital period
115.93 mins
BSTAR
0.0000084694
Loading maneuver chart data...
Loading SW <> Apogee altitude chart data...
Loading historical data...
Loading historical data...
Loading historical data...
Loading historical data...
Loading historical data...
Loading historical data...
Loading historical data...
Other satellites on launch #94 in the year 1986 (1986-12-02 UTC)

COSMOS 1803 Visibility forecast

Observer location: undefined°, undefined°

Span
Click to sort rows by Start time (UTC) header in descending order
Start Az.
Max El. time (UTC)
Max El. Az.
Max El.
End time (UTC)
End Az.
15 mins2025-07-03 14:04:40.081Z2.817° NNE2025-07-03 14:11:40.081Z85.11° E40.977°2025-07-03 14:19:40.081Z157.239° SSE
12 mins2025-07-03 16:02:40.081Z322.039° NNW2025-07-03 16:07:40.081Z278.193° WNW25.33°2025-07-03 16:14:40.081Z223.707° SW
15 mins2025-07-04 03:04:40.081Z174.134° S2025-07-04 03:11:40.081Z107.104° ESE43.581°2025-07-04 03:19:40.081Z12.311° NNE
11 mins2025-07-04 05:04:40.081Z251.794° W2025-07-04 05:09:40.081Z293.354° NW22.161°2025-07-04 05:15:40.081Z340.767° N
|